Wind_Speed
18 18 19 19 20 20 20 20 21 20 20 19 19 20 21 21 21 22 22 22 22 22 22 23 24 24 25 25 26 27 27 29 29 30 31 32 33 35
21 21 22 22 23 23 24 24 24 24 24 23 22 22 22 23 23 24 24 24 25 25 25 25 25 26 26 27 28 29 29 30 31 32 33 34 34 35
24 24 24 25 25 26 26 27 27 27 27 27 26 25 25 25 25 25 26 26 26 27 27 27 27 27 28 28 29 30 31 32 33 34 35 35 36 37
26 26 26 27 27 28 28 29 29 30 30 30 30 29 28 28 28 28 28 28 28 28 28 28 28 29 29 29 30 31 32 33 34 35 36 38 39 39
28 28 29 29 29 30 30 31 32 32 32 32 32 32 32 32 31 31 31 31 30 30 29 30 30 31 30 30 31 31 31 33 34 36 37 38 39 41
30 31 31 31 32 33 33 34 34 34 34 34 34 35 35 35 34 34 33 33 33 33 32 31 32 32 32 32 32 32 33 33 34 35 37 38 40 41
32 33 34 34 35 36 36 36 37 37 38 38 38 37 37 38 38 37 36 36 35 35 35 34 34 34 34 34 34 34 34 34 34 35 36 38 40 41
35 35 36 36 37 38 39 40 40 40 40 41 41 40 40 41 41 40 39 39 37 37 37 36 36 36 36 35 35 36 36 36 36 36 37 38 39 40
38 39 39 40 41 41 42 43 43 44 44 44 44 43 44 44 44 43 43 42 41 40 41 39 38 38 38 38 37 37 37 38 38 38 38 38 39 40
41 42 43 43 44 45 46 46 46 47 47 47 47 47 47 47 48 47 46 45 44 43 44 43 41 41 40 40 39 39 39 38 39 39 39 39 40 41
43 44 45 46 47 48 49 50 49 49 49 50 51 51 50 50 50 50 49 49 47 45 45 46 44 43 43 42 42 41 40 40 40 40 40 40 41 41
46 47 48 49 49 51 52 52 53 52 53 54 54 54 53 52 52 53 53 52 51 48 47 48 47 46 45 44 44 43 42 42 41 41 41 41 42 42
49 50 52 53 54 55 56 57 57 57 58 58 58 58 58 57 56 56 55 55 55 53 51 51 50 49 47 45 45 45 44 44 43 42 41 42 42 42
53 55 57 58 59 60 61 61 62 63 63 62 62 62 61 61 60 59 58 58 57 56 54 54 53 52 50 48 47 46 46 46 44 43 42 42 42 43
58 59 61 62 63 64 65 65 66 66 66 66 66 65 65 64 64 62 61 60 59 57 56 56 55 54 52 50 48 47 47 46 45 45 43 43 42 42
62 63 64 65 66 66 67 67 68 68 68 68 68 67 66 66 65 64 63 62 61 59 57 57 56 56 54 52 50 49 47 46 46 45 44 43 42 42
65 65 66 66 66 67 67 67 67 67 66 66 65 65 64 63 61 61 61 60 60 59 58 56 55 55 55 53 52 50 48 47 47 46 45 44 43 42
64 64 63 64 64 63 63 62 62 63 62 62 60 59 59 58 57 57 57 57 57 56 54 54 53 53 53 52 51 50 48 47 46 46 45 44 42 42
61 60 60 59 58 57 58 58 58 57 57 56 56 55 54 54 54 54 54 54 54 53 52 51 51 51 51 50 48 49 48 47 46 45 44 44 42 41
56 55 54 53 53 52 52 52 51 50 49 49 48 48 48 48 48 48 48 49 49 49 48 48 48 48 47 48 47 47 46 45 44 43 43 43 42 42
51 50 49 49 48 47 46 46 45 44 43 42 41 41 42 42 42 42 43 43 44 44 44 44 44 45 46 47 46 44 44 45 44 43 43 42 42 41
46 45 44 43 42 41 40 40 39 38 37 36 35 36 36 37 37 36 37 38 38 39 39 40 41 41 42 43 42 41 42 42 41 40 40 40 40 40
41 40 39 38 37 36 35 35 34 33 32 30 29 29 29 30 30 30 31 31 32 32 34 35 36 37 37 38 38 38 39 39 39 39 38 38 39 39
Wind_Direction
294 295 295 296 296 297 298 299 299 299 299 298 298 298 298 297 295 293 291 290 287 285 282 280 278 275 272 269 267 266 264 262 260 258 256 254 253 251
292 293 293 294 294 295 295 295 295 296 296 296 296 295 294 293 292 290 290 289 288 286 283 280 278 277 275 272 270 269 267 265 262 260 259 257 255 254
291 292 292 292 293 293 293 293 292 293 293 294 294 294 293 292 290 288 287 287 286 285 283 281 279 278 276 275 273 271 269 267 265 262 261 259 258 257
290 291 291 291 291 291 291 290 289 290 290 291 291 291 291 291 290 288 287 285 284 284 283 282 280 279 277 276 275 274 271 269 267 265 262 259 258 257
288 289 289 289 289 289 288 288 288 288 288 288 289 289 289 288 288 287 286 284 283 281 280 280 280 279 278 277 276 275 274 272 269 266 263 262 260 258
287 287 287 287 286 286 286 286 285 285 286 286 287 287 287 287 286 285 284 283 282 281 279 279 279 279 278 276 275 275 275 274 272 269 266 264 262 260
285 286 287 286 286 285 286 286 285 284 284 285 285 285 285 285 284 283 282 281 280 279 279 278 277 277 277 277 276 275 275 274 274 272 269 267 264 262
284 284 285 286 285 285 285 284 285 285 284 284 284 285 285 284 283 282 281 281 280 279 278 277 277 276 275 275 275 275 275 274 274 274 272 270 267 265
285 285 285 285 284 283 283 283 284 284 284 283 284 284 284 283 282 281 281 280 280 279 279 277 276 276 275 275 274 273 273 274 274 274 273 272 269 267
286 285 285 285 285 284 283 283 283 284 284 283 283 283 282 281 281 280 280 279 279 279 279 278 277 276 275 275 274 273 273 273 274 274 274 273 271 269
287 286 286 286 285 283 283 284 284 283 282 281 281 281 280 279 280 280 279 279 278 278 277 277 276 276 275 275 274 273 273 272 273 274 274 273 271 270
287 287 287 287 286 285 285 284 284 283 282 281 281 280 279 278 278 278 278 278 278 277 276 276 275 274 273 273 273 273 273 273 273 274 274 273 271 270
289 288 288 287 287 286 285 285 284 282 281 280 280 279 279 278 277 276 276 276 276 275 275 274 274 274 273 272 271 272 272 272 272 273 274 273 272 271
289 289 288 288 288 287 286 285 284 283 282 280 279 278 278 277 276 274 273 273 272 272 272 272 273 273 273 272 271 270 271 271 271 271 271 271 271 271
289 289 289 289 288 287 286 285 284 283 282 281 280 278 277 276 274 273 272 271 271 269 268 269 270 270 271 271 271 270 270 270 271 271 270 270 269 269
290 290 289 288 287 286 285 284 283 282 281 280 279 278 276 274 272 271 270 269 268 267 266 265 266 267 268 268 269 269 270 270 270 270 270 269 269 269
292 291 290 289 288 287 285 285 284 283 281 280 279 277 275 273 271 270 268 267 266 266 264 263 262 263 264 265 266 267 268 267 268 268 269 269 269 269
294 293 292 291 290 288 286 286 284 283 282 280 279 277 275 273 270 268 266 265 264 263 261 261 260 260 261 261 263 264 265 265 265 266 268 268 268 268
295 294 294 293 291 290 289 289 287 285 283 281 278 276 274 271 269 267 265 263 262 260 259 258 257 257 258 259 260 261 261 261 263 265 266 266 266 265
296 295 295 294 293 293 292 291 289 287 285 282 279 275 272 270 268 267 265 262 260 259 257 256 255 256 257 256 256 256 257 259 260 261 263 264 264 263
297 297 296 295 295 294 294 292 291 289 286 283 279 275 272 269 268 266 265 263 261 258 257 255 253 254 255 256 255 255 255 256 257 258 260 262 262 263
298 299 298 298 297 297 296 295 293 291 288 285 281 277 274 271 268 266 264 262 260 258 256 254 252 253 254 254 255 254 253 253 256 257 258 260 261 261
300 300 300 300 300 299 299 298 297 296 292 287 284 280 276 272 268 266 263 261 259 256 254 252 252 253 253 253 254 254 254 253 255 256 256 258 259 260
Height
5869 5869 5868 5867 5866 5865 5864 5863 5862 5861 5860 5859 5858 5857 5855 5854 5854 5853 5852 5851 5851 5850 5850 5850 5850 5850 5850 5851 5852 5853 5853 5855 5856 5857 5859 5861 5863 5865
5865 5864 5863 5862 5861 5860 5859 5858 5857 5856 5854 5854 5853 5852 5850 5849 5848 5847 5846 5845 5845 5844 5844 5843 5843 5843 5843 5844 5844 5845 5846 5847 5848 5849 5851 5852 5854 5856
5859 5858 5857 5856 5855 5854 5853 5852 5851 5849 5848 5847 5846 5845 5844 5843 5842 5841 5840 5839 5838 5837 5837 5836 5836 5836 5836 5836 5836 5836 5837 5838 5839 5840 5842 5843 5845 5847
5853 5852 5851 5850 5849 5847 5846 5845 5844 5843 5842 5840 5839 5838 5837 5836 5835 5833 5833 5832 5831 5830 5829 5829 5828 5828 5828 5828 5828 5828 5828 5829 5829 5830 5832 5833 5835 5836
5846 5845 5844 5842 5841 5840 5839 5837 5836 5835 5834 5833 5831 5830 5829 5828 5827 5826 5825 5824 5823 5822 5821 5820 5820 5819 5819 5819 5819 5819 5819 5819 5819 5820 5821 5822 5824 5825
5838 5837 5836 5834 5833 5831 5830 5829 5827 5826 5825 5824 5823 5821 5820 5819 5818 5817 5816 5815 5814 5813 5812 5812 5811 5810 5810 5809 5809 5809 5809 5809 5809 5809 5810 5811 5812 5814
5830 5828 5827 5825 5824 5822 5821 5819 5818 5817 5815 5814 5813 5812 5810 5809 5808 5807 5806 5805 5804 5803 5802 5802 5802 5801 5800 5799 5799 5799 5799 5799 5798 5799 5799 5799 5800 5802
5820 5819 5817 5815 5814 5812 5810 5808 5807 5806 5805 5803 5802 5801 5800 5798 5796 5795 5794 5794 5794 5793 5792 5792 5791 5790 5790 5789 5789 5788 5788 5788 5787 5787 5787 5788 5788 5789
5810 5808 5806 5804 5802 5801 5799 5797 5795 5794 5793 5791 5790 5789 5787 5785 5784 5783 5782 5781 5781 5780 5779 5780 5779 5779 5778 5778 5778 5777 5777 5776 5776 5776 5775 5776 5776 5777
5798 5796 5794 5793 5790 5788 5786 5784 5783 5782 5780 5777 5776 5776 5774 5772 5770 5769 5768 5768 5768 5768 5766 5766 5766 5766 5765 5765 5765 5765 5765 5764 5764 5763 5763 5763 5763 5764
5785 5783 5781 5779 5777 5774 5772 5770 5769 5768 5766 5763 5762 5761 5759 5758 5756 5754 5754 5753 5754 5754 5752 5751 5752 5751 5752 5752 5751 5751 5752 5752 5751 5751 5750 5750 5750 5751
5771 5769 5766 5764 5762 5759 5757 5755 5753 5752 5749 5747 5745 5744 5743 5742 5741 5739 5738 5737 5737 5738 5738 5736 5736 5737 5738 5738 5737 5737 5738 5738 5738 5738 5737 5737 5737 5737
5757 5754 5751 5748 5746 5743 5740 5738 5735 5733 5731 5729 5728 5726 5725 5725 5724 5722 5721 5720 5720 5721 5722 5720 5720 5720 5722 5723 5723 5723 5723 5724 5724 5724 5724 5723 5723 5723
5741 5738 5735 5731 5728 5724 5721 5718 5715 5712 5710 5709 5707 5707 5706 5705 5704 5703 5702 5702 5702 5703 5704 5703 5703 5704 5705 5706 5707 5708 5708 5708 5709 5710 5710 5710 5709 5709
5724 5721 5717 5712 5708 5705 5701 5696 5693 5690 5687 5686 5685 5684 5683 5682 5681 5681 5681 5681 5682 5684 5685 5685 5685 5686 5687 5688 5690 5691 5692 5693 5693 5694 5695 5695 5696 5696
5706 5702 5697 5692 5687 5683 5679 5675 5671 5667 5664 5662 5660 5660 5658 5658 5658 5658 5659 5660 5661 5663 5665 5666 5667 5668 5669 5671 5673 5675 5676 5677 5678 5679 5679 5680 5681 5682
5684 5680 5675 5670 5665 5660 5656 5652 5647 5643 5640 5638 5636 5635 5634 5634 5634 5635 5636 5637 5638 5642 5644 5647 5648 5649 5651 5653 5655 5658 5660 5661 5662 5663 5664 5665 5667 5667
5662 5658 5653 5647 5642 5637 5633 5629 5624 5620 5617 5614 5612 5611 5611 5611 5612 5613 5613 5614 5617 5620 5623 5626 5629 5631 5633 5635 5639 5641 5643 5645 5646 5647 5648 5650 5652 5653
5642 5637 5632 5626 5621 5616 5612 5607 5603 5599 5595 5592 5591 5590 5590 5590 5591 5592 5593 5594 5596 5600 5603 5607 5609 5611 5614 5619 5623 5624 5626 5628 5630 5632 5634 5635 5637 5639
5624 5619 5613 5608 5603 5598 5593 5589 5584 5580 5577 5574 5572 5571 5570 5571 5572 5573 5575 5576 5579 5581 5585 5588 5591 5594 5597 5601 5605 5608 5610 5612 5615 5617 5619 5620 5622 5624
5608 5602 5596 5591 5586 5582 5577 5572 5568 5564 5561 5557 5556 5555 5554 5555 5556 5557 5559 5560 5562 5565 5568 5572 5576 5579 5581 5584 5587 5592 5595 5597 5600 5602 5604 5606 5608 5610
5593 5588 5582 5577 5572 5568 5563 5559 5555 5551 5547 5544 5542 5541 5541 5541 5542 5543 5545 5547 5549 5551 5554 5558 5561 5563 5566 5569 5572 5577 5580 5583 5585 5587 5590 5593 5594 5596
5580 5575 5570 5565 5560 5556 5552 5547 5543 5540 5536 5534 5532 5531 5530 5530 5531 5532 5534 5535 5537 5539 5541 5544 5548 5550 5553 5556 5559 5563 5566 5569 5571 5574 5577 5579 5581 5583